Total_Precipitation_Accumulation
0.27 0.41 0.66 0.37 0.21 0.30 0.46 0.48 0.51 0.31 0.12 0.06 0.05 0.04 0.03 0.05 0.11 0.23 0.26 0.09 0.04 0.07 0.02 0.00 0.00 0.02 0.05 0.08 0.10 0.06 0.14 0.10 0.15 0.18 0.19 0.12 0.04 0.01 0.00 0.00 0.00 0.01 0.05 0.07 0.10 0.23 0.10 0.00 0.00 0.00 0.01 0.00 0.00 0.00
0.19 0.28 0.45 0.38 0.24 0.27 0.36 0.43 0.49 0.45 0.23 0.09 0.05 0.04 0.04 0.06 0.11 0.24 0.33 0.17 0.06 0.09 0.03 0.00 0.00 0.00 0.01 0.04 0.12 0.16 0.10 0.05 0.05 0.07 0.05 0.05 0.03 0.02 0.01 0.01 0.00 0.04 0.04 0.03 0.12 0.08 0.01 0.02 0.02 0.02 0.00 0.00 0.00 0.00
0.15 0.20 0.30 0.31 0.25 0.27 0.30 0.30 0.39 0.44 0.34 0.14 0.06 0.05 0.04 0.06 0.09 0.25 0.29 0.25 0.18 0.29 0.14 0.01 0.00 0.00 0.01 0.01 0.02 0.15 0.16 0.16 0.17 0.16 0.19 0.19 0.15 0.06 0.04 0.04 0.02 0.05 0.07 0.17 0.17 0.14 0.06 0.08 0.05 0.01 0.01 0.01 0.02 0.02
0.14 0.17 0.21 0.25 0.27 0.24 0.23 0.22 0.26 0.32 0.35 0.21 0.10 0.08 0.07 0.07 0.13 0.31 0.43 0.33 0.28 0.34 0.25 0.08 0.00 0.00 0.01 0.01 0.01 0.02 0.10 0.10 0.12 0.14 0.23 0.22 0.22 0.15 0.12 0.09 0.11 0.12 0.17 0.22 0.28 0.13 0.14 0.08 0.01 0.01 0.01 0.01 0.00 0.01
0.14 0.15 0.16 0.20 0.25 0.23 0.19 0.17 0.19 0.19 0.22 0.17 0.14 0.11 0.13 0.14 0.24 0.49 0.54 0.33 0.23 0.18 0.23 0.07 0.00 0.00 0.00 0.00 0.01 0.02 0.05 0.12 0.16 0.16 0.20 0.21 0.18 0.18 0.18 0.16 0.13 0.05 0.06 0.17 0.15 0.03 0.05 0.05 0.01 0.00 0.00 0.00 0.00 0.00
0.14 0.13 0.15 0.19 0.23 0.23 0.16 0.13 0.15 0.17 0.13 0.13 0.15 0.16 0.18 0.25 0.55 0.84 1.22 0.64 0.27 0.20 0.23 0.22 0.08 0.00 0.00 0.00 0.00 0.00 0.02 0.05 0.15 0.23 0.20 0.14 0.08 0.09 0.18 0.13 0.02 0.00 0.00 0.00 0.00 0.01 0.03 0.04 0.01 0.00 0.00 0.00 0.00 0.00
0.13 0.11 0.11 0.15 0.17 0.21 0.18 0.12 0.14 0.17 0.16 0.14 0.16 0.20 0.24 0.37 0.66 0.83 0.76 0.37 0.16 0.22 0.59 0.61 0.19 0.02 0.00 0.01 0.02 0.01 0.01 0.01 0.04 0.12 0.14 0.12 0.09 0.12 0.18 0.07 0.00 0.00 0.00 0.00 0.00 0.01 0.05 0.04 0.02 0.00 0.00 0.00 0.00 0.00
0.16 0.11 0.09 0.09 0.13 0.17 0.19 0.14 0.15 0.17 0.18 0.18 0.21 0.29 0.41 0.80 0.99 0.88 0.26 0.08 0.05 0.26 0.79 0.70 0.28 0.05 0.01 0.02 0.02 0.01 0.01 0.02 0.03 0.04 0.06 0.04 0.07 0.13 0.11 0.01 0.00 0.00 0.01 0.01 0.00 0.00 0.00 0.02 0.01 0.00 0.00 0.00 0.00 0.00
0.18 0.11 0.07 0.08 0.11 0.19 0.18 0.15 0.19 0.22 0.26 0.31 0.39 0.70 1.31 1.61 1.46 0.78 0.31 0.36 0.24 0.32 0.72 0.49 0.11 0.05 0.01 0.02 0.05 0.04 0.04 0.04 0.05 0.05 0.02 0.03 0.06 0.05 0.01 0.00 0.00 0.01 0.01 0.00 0.00 0.00 0.00 0.00 0.00 0.00 0.00 0.00 0.00 0.00
0.19 0.12 0.07 0.08 0.13 0.23 0.21 0.17 0.26 0.31 0.41 0.74 1.46 2.63 3.50 2.07 0.62 0.47 1.00 1.54 1.67 1.16 0.31 0.11 0.02 0.03 0.01 0.02 0.07 0.10 0.14 0.08 0.08 0.01 0.01 0.04 0.02 0.00 0.00 0.00 0.01 0.00 0.00 0.00 0.00 0.00 0.00 0.00 0.00 0.00 0.00 0.00 0.00 0.00
0.22 0.14 0.07 0.07 0.16 0.30 0.28 0.26 0.43 0.64 1.26 2.49 3.57 2.63 1.53 0.58 0.54 0.88 1.95 1.96 2.17 1.62 0.48 0.02 0.02 0.02 0.00 0.01 0.03 0.04 0.13 0.13 0.08 0.01 0.01 0.02 0.00 0.00 0.00 0.01 0.00 0.00 0.00 0.00 0.00 0.00 0.00 0.00 0.00 0.00 0.00 0.00 0.00 0.00
0.27 0.13 0.09 0.09 0.26 0.37 0.39 0.50 0.80 1.77 2.64 2.14 1.25 1.37 1.46 0.68 1.29 2.02 1.35 1.10 0.77 0.52 0.10 0.00 0.01 0.02 0.01 0.02 0.02 0.03 0.04 0.06 0.04 0.05 0.11 0.02 0.00 0.00 0.00 0.00 0.00 0.00 0.00 0.00 0.00 0.00 0.00 0.00 0.00 0.00 0.00 0.00 0.00 0.00
0.29 0.14 0.14 0.15 0.36 0.46 0.54 0.94 1.24 1.90 0.93 0.57 0.77 1.69 1.52 1.28 1.23 1.23 0.63 0.62 0.16 0.15 0.03 0.01 0.05 0.05 0.08 0.09 0.08 0.03 0.05 0.06 0.04 0.06 0.04 0.00 0.00 0.01 0.00 0.00 0.00 0.00 0.00 0.00 0.00 0.00 0.00 0.00 0.00 0.00 0.00 0.00 0.00 0.00
0.28 0.16 0.19 0.27 0.45 0.70 0.98 1.35 1.31 1.26 0.55 1.17 1.31 1.36 0.77 0.77 0.28 0.07 0.02 0.01 0.01 0.00 0.00 0.01 0.02 0.02 0.04 0.09 0.07 0.06 0.04 0.05 0.07 0.02 0.00 0.00 0.01 0.00 0.00 0.00 0.00 0.00 0.00 0.00 0.00 0.00 0.00 0.00 0.00 0.00 0.00 0.00 0.00 0.00
0.32 0.24 0.39 0.56 0.69 0.94 1.04 1.16 1.05 0.93 0.86 0.92 0.49 0.49 0.20 0.12 0.01 0.00 0.01 0.00 0.00 0.00 0.00 0.03 0.05 0.06 0.06 0.06 0.06 0.08 0.12 0.07 0.01 0.00 0.00 0.01 0.01 0.00 0.00 0.00 0.00 0.00 0.00 0.00 0.00 0.00 0.00 0.00 0.00 0.00 0.00 0.00 0.00 0.00
0.54 0.66 0.77 0.72 0.80 0.93 1.10 1.17 1.20 1.11 1.01 0.49 0.27 0.09 0.05 0.07 0.05 0.04 0.04 0.01 0.00 0.01 0.10 0.18 0.20 0.23 0.14 0.08 0.07 0.05 0.05 0.01 0.00 0.00 0.00 0.00 0.00 0.00 0.00 0.00 0.00 0.00 0.00 0.00 0.00 0.00 0.00 0.00 0.00 0.00 0.00 0.00 0.00 0.00
0.93 1.44 0.81 0.68 0.84 1.10 1.49 1.86 2.27 1.50 1.05 0.47 0.20 0.03 0.03 0.05 0.04 0.02 0.02 0.01 0.01 0.11 0.12 0.16 0.18 0.16 0.07 0.08 0.03 0.00 0.00 0.00 0.00 0.00 0.00 0.00 0.00 0.00 0.00 0.00 0.00 0.00 0.00 0.00 0.00 0.00 0.00 0.00 0.00 0.00 0.00 0.00 0.00 0.00
0.69 0.46 0.47 0.79 1.24 1.91 2.42 1.72 1.63 1.11 0.82 0.26 0.10 0.04 0.03 0.01 0.03 0.05 0.04 0.01 0.02 0.05 0.07 0.03 0.04 0.08 0.07 0.03 0.00 0.00 0.00 0.01 0.00 0.00 0.00 0.00 0.00 0.00 0.00 0.00 0.00 0.00 0.00 0.00 0.00 0.00 0.00 0.00 0.00 0.00 0.00 0.00 0.00 0.00
0.35 0.42 0.67 0.96 1.42 2.26 2.65 1.57 0.81 0.48 0.30 0.15 0.06 0.07 0.07 0.04 0.06 0.05 0.07 0.04 0.04 0.05 0.05 0.15 0.20 0.06 0.01 0.00 0.01 0.01 0.01 0.01 0.00 0.00 0.00 0.00 0.00 0.00 0.00 0.00 0.00 0.00 0.00 0.00 0.00 0.00 0.00 0.00 0.00 0.00 0.00 0.00 0.00 0.00
0.43 0.53 0.63 0.66 0.44 0.51 0.85 0.99 0.55 0.49 0.16 0.12 0.10 0.08 0.11 0.11 0.08 0.12 0.26 0.25 0.19 0.39 0.33 0.12 0.02 0.01 0.02 0.01 0.00 0.00 0.01 0.00 0.01 0.04 0.03 0.00 0.00 0.00 0.00 0.00 0.00 0.00 0.00 0.00 0.00 0.00 0.00 0.00 0.00 0.00 0.00 0.00 0.00 0.00
0.69 0.85 0.65 0.45 0.45 0.42 0.44 0.44 0.21 0.37 0.17 0.14 0.13 0.10 0.23 0.25 0.31 0.30 0.36 0.33 0.32 0.27 0.15 0.05 0.03 0.03 0.01 0.01 0.01 0.01 0.02 0.02 0.03 0.02 0.01 0.01 0.01 0.00 0.00 0.00 0.00 0.00 0.00 0.00 0.00 0.00 0.00 0.00 0.00 0.00 0.00 0.00 0.00 0.00
1.28 0.86 0.78 0.61 0.44 0.38 0.25 0.08 0.07 0.09 0.13 0.18 0.16 0.14 0.28 0.29 0.30 0.32 0.26 0.30 0.17 0.06 0.02 0.04 0.06 0.03 0.01 0.00 0.01 0.00 0.01 0.01 0.01 0.01 0.01 0.01 0.00 0.00 0.00 0.00 0.00 0.00 0.00 0.00 0.00 0.00 0.00 0.00 0.00 0.00 0.00 0.00 0.00 0.00
0.65 0.48 0.56 0.54 0.48 0.39 0.38 0.06 0.12 0.11 0.14 0.22 0.15 0.13 0.17 0.16 0.19 0.12 0.14 0.10 0.04 0.02 0.00 0.00 0.01 0.02 0.03 0.04 0.05 0.01 0.01 0.00 0.00 0.00 0.00 0.00 0.00 0.00 0.00 0.00 0.00 0.00 0.00 0.00 0.00 0.00 0.00 0.00 0.00 0.00 0.00 0.00 0.00 0.00
0.25 0.47 0.60 0.46 0.34 0.26 0.32 0.10 0.09 0.09 0.12 0.13 0.11 0.08 0.08 0.10 0.12 0.08 0.04 0.02 0.01 0.00 0.00 0.00 0.00 0.00 0.01 0.00 0.00 0.01 0.02 0.01 0.01 0.01 0.00 0.00 0.00 0.00 0.00 0.00 0.00 0.00 0.00 0.00 0.00 0.00 0.00 0.00 0.00 0.00 0.00 0.00 0.00 0.00
0.33 0.44 0.34 0.19 0.14 0.07 0.13 0.09 0.06 0.07 0.08 0.05 0.03 0.04 0.05 0.03 0.05 0.03 0.01 0.00 0.00 0.00 0.00 0.00 0.00 0.00 0.00 0.00 0.00 0.01 0.03 0.01 0.00 0.00 0.00 0.00 0.00 0.00 0.00 0.00 0.00 0.00 0.00 0.00 0.00 0.00 0.00 0.00 0.00 0.00 0.00 0.00 0.00 0.00
0.34 0.13 0.12 0.02 0.04 0.05 0.03 0.03 0.03 0.05 0.05 0.03 0.02 0.02 0.01 0.01 0.01 0.00 0.00 0.00 0.00 0.00 0.00 0.00 0.00 0.00 0.00 0.00 0.00 0.00 0.00 0.00 0.00 0.00 0.00 0.00 0.00 0.00 0.00 0.00 0.00 0.00 0.00 0.00 0.00 0.00 0.00 0.00 0.00 0.00 0.00 0.00 0.00 0.00
0.14 0.01 0.00 0.00 0.00 0.01 0.02 0.04 0.06 0.07 0.06 0.01 0.02 0.02 0.01 0.01 0.00 0.00 0.00 0.00 0.00 0.00 0.00 0.00 0.00 0.00 0.00 0.00 0.00 0.00 0.00 0.00 0.00 0.00 0.00 0.00 0.00 0.00 0.00 0.00 0.00 0.00 0.00 0.00 0.00 0.00 0.00 0.00 0.00 0.00 0.00 0.00 0.00 0.00
0.06 0.00 0.00 0.00 0.00 0.01 0.03 0.06 0.07 0.07 0.02 0.00 0.00 0.00 0.00 0.00 0.01 0.02 0.01 0.00 0.00 0.00 0.00 0.00 0.00 0.00 0.00 0.00 0.00 0.00 0.00 0.00 0.00 0.00 0.00 0.00 0.00 0.00 0.00 0.00 0.00 0.00 0.00 0.00 0.00 0.00 0.00 0.00 0.00 0.00 0.00 0.00 0.00 0.00
0.02 0.00 0.00 0.00 0.01 0.02 0.04 0.04 0.04 0.04 0.01 0.00 0.00 0.00 0.01 0.03 0.06 0.06 0.02 0.01 0.00 0.00 0.00 0.00 0.00 0.00 0.00 0.00 0.00 0.00 0.00 0.00 0.00 0.00 0.00 0.00 0.00 0.00 0.00 0.00 0.00 0.00 0.00 0.00 0.00 0.00 0.00 0.00 0.00 0.00 0.00 0.00 0.00 0.00
0.01 0.00 0.00 0.01 0.04 0.06 0.09 0.06 0.05 0.04 0.01 0.00 0.00 0.01 0.03 0.12 0.19 0.11 0.05 0.02 0.01 0.01 0.01 0.00 0.00 0.00 0.00 0.00 0.00 0.01 0.01 0.00 0.00 0.00 0.00 0.00 0.00 0.00 0.00 0.00 0.00 0.00 0.00 0.00 0.00 0.00 0.00 0.00 0.00 0.00 0.00 0.00 0.00 0.00
0.00 0.00 0.00 0.02 0.09 0.16 0.19 0.10 0.04 0.03 0.03 0.03 0.02 0.03 0.07 0.16 0.21 0.17 0.09 0.07 0.02 0.01 0.01 0.01 0.01 0.01 0.00 0.00 0.00 0.00 0.01 0.00 0.00 0.00 0.00 0.00 0.00 0.00 0.00 0.00 0.00 0.00 0.00 0.00 0.00 0.00 0.00 0.00 0.00 0.00 0.00 0.00 0.00 0.00
0.00 0.00 0.00 0.04 0.17 0.18 0.10 0.07 0.05 0.08 0.10 0.07 0.09 0.06 0.06 0.05 0.08 0.11 0.17 0.16 0.08 0.03 0.02 0.01 0.01 0.01 0.01 0.00 0.00 0.00 0.00 0.00 0.00 0.00 0.00 0.00 0.00 0.00 0.00 0.00 0.00 0.00 0.00 0.00 0.00 0.00 0.00 0.00 0.00 0.00 0.00 0.00 0.00 0.00
0.02 0.01 0.00 0.02 0.08 0.09 0.06 0.05 0.05 0.09 0.09 0.09 0.14 0.09 0.06 0.03 0.05 0.10 0.15 0.19 0.15 0.06 0.02 0.02 0.01 0.01 0.01 0.00 0.00 0.00 0.00 0.00 0.00 0.00 0.01 0.00 0.00 0.00 0.00 0.00 0.00 0.00 0.00 0.00 0.00 0.00 0.00 0.00 0.00 0.00 0.00 0.00 0.00 0.00